PAVDPACV

Guest
Details From PAVD - Valdez Pioneer Fld
To PACV - Merle K Mudhole Smith
Flight Number -
Tags Generated
Created
Modified
Stats Distance 45 nm / 83 km
Max Altitude 0 ft / 0 m
Waypoints 2
Social Downloads 1
Likes 0
Share VATSIM

Download

Looking for another format? Having issues loading an existing format? Contact us
Advertisement - Login to hide

Notes

Generated

Route

PAVD PACV

ID Type Via Altitude Latitude Longitude Leg Dist Tot Dist Heading (true) Name
O PAVD APT - 0 ft / 0 m 61.13260˚ -146.26654˚ - 0 nm - -
O PACV APT - 0 ft / 0 m 60.49147˚ -145.47658˚ 44 nm 44 nm 149° / 149° Cordova-Smith

Altitude Profile

Advertisement - Login to hide

PAVD

Details ICAO PAVD (VDZ)
Name Valdez Pioneer Fld
Region USA (Alaska)
Timezone America/Anchorage (UTC-8.0)
Stats Elevation 118 ft / 36 m (AMSL)
Location 61.133950° -146.248340°
Runways 1
Magnetic Variation 17.267° E

METAR

PAVD 202156Z 24005KT 10SM -RA FEW008 SCT030 OVC045 09/06 A2965

Decode

TAF

PAVD 201724Z 2018/2118 VRB04KT P6SM -SHRA SCT030 OVC045 AMD LTD TO CLD VIS AND WIND

Decode

Departure Runways

ID Width Length Bearing (true) Bearing (mag) Surface Threshold Offset Overrun Length
06 150 ft / 46 m 6,486 ft / 1,977 m 81.25° 63.98° Asphalt 0 ft / 0 m 0 ft / 0 m
24 150 ft / 46 m 6,486 ft / 1,977 m 261.28° 244.01° Asphalt 0 ft / 0 m 0 ft / 0 m

PACV

Details ICAO PACV (CDV)
Name Cordova-Smith
Region USA (Alaska)
Timezone America/Anchorage (UTC-8.0)
Stats Elevation 41 ft / 12 m (AMSL)
Location 60.490693° -145.477301°
Runways 2
Magnetic Variation 17.381° E

METAR

PACV 202153Z 06009KT 10SM -RA BKN036 BKN047 OVC055 08/04 A2967 RMK AO2 SLP047 P0000 T00780044 $

Decode

TAF

PACV 201724Z 2018/2118 10009KT P6SM -RA FEW015 SCT025 OVC040

Decode

Destination Runways

ID Width Length Bearing (true) Bearing (mag) Surface Threshold Offset Overrun Length
09 151 ft / 46 m 7,475 ft / 2,278 m 114.24° 96.86° Asphalt 0 ft / 0 m 0 ft / 0 m
16 30 ft / 9 m 1,895 ft / 578 m 180.51° 163.13° Gravel 0 ft / 0 m 0 ft / 0 m
27 151 ft / 46 m 7,475 ft / 2,278 m 294.28° 276.90° Asphalt 0 ft / 0 m 0 ft / 0 m
34 30 ft / 9 m 1,895 ft / 578 m 0.51° 343.13° Gravel 0 ft / 0 m 0 ft / 0 m

Approach Navaids

Runway Type Ident Frequency Range Bearing (true) Bearing (mag) Slope Elevation
27 Localiser ICDV 110.70 MHz 18 nm / 33 km 294.17° 276.79° - 32 ft / 10 m (AMSL)
27 Glidescope ICDV 110.70 MHz 10 nm / 19 km 294.26° 276.88° 3.00° 39 ft / 12 m (AMSL)
27 DME ICDV 110.70 MHz 18 nm / 33 km - - - 51 ft / 16 m (AMSL)

Popular Alternatives